Regional Weather Roundup
Issued by NWS

Home | Current Version | Previous Version | Graphics & Text | Print | Product List | Glossary On
Versions: 1 2 3 4 5 6 7 8 9 10 11 12 13 14 15 16 17 18 19 20 21 22 23 24 25 26 27 28 29 30 31 32 33 34 35 36 37 38 39 40 41 42 43 44 45 46 47 48 49 50
000
ASUS45 KBOU 011107
RWRCO

WEATHER ROUNDUP FOR COLORADO
NATIONAL WEATHER SERVICE DENVER/BOULDER CO
500 AM MDT WED APR 01 2015

NOTE: "FAIR" INDICATES FEW OR NO CLOUDS BELOW 12000 FEET WITH NO
SIGNIFICANT WEATHER AND/OR OBSTRUCTIONS TO VISIBILITY.

COZ001>005-013-030-031-011200-
...NORTHWEST COLORADO...

CITY           SKY/WX    TMP DP  RH WIND       PRES   REMARKS
CRAIG          CLOUDY    48  23  37 CALM      29.85R
HAYDEN         MOCLDY    46  19  34 N5        29.86R
MEEKER         CLOUDY    45  25  45 N6        29.86S
MOUNT WERNER   NOT AVBL
STEAMBOAT SPGS CLOUDY    42  26  53 E6        29.86S
WALDEN         MOCLDY    43  16  33 SW12      29.88S
$$

COZ006>008-011-011200-
...WEST CENTRAL VALLEYS...

CITY           SKY/WX    TMP DP  RH WIND       PRES   REMARKS
GRAND JUNCTION PTCLDY    52  21  29 E9        29.81S
MONTROSE       CLOUDY    54  23  30 S9        29.92R
EAGLE          MOCLDY    37  25  60 CALM      29.92S
RIFLE          PTCLDY    38  22  52 E5        29.85S
DELTA          PTCLDY    49  26  40 CALM      29.87S
NUCLA          CLOUDY    50  21  32 S7        29.95S
$$

COZ017>023-064>068-011200-
...SOUTHWEST COLORADO...

CITY           SKY/WX    TMP DP  RH WIND       PRES   REMARKS
DURANGO        MOCLDY    41  27  57 CALM      29.98F
CORTEZ         CLOUDY    55  26  32 SW13      29.96S
PAGOSA SPRINGS MOCLDY    38  24  58 CALM      30.03S
TELLURIDE      NOT AVBL
WOLF CREEK PAS MOCLDY    30  19  64 SW21G33   30.17F WCI  17
$$

COZ009-010-012-014-032>034-037-058>063-011200-
...CENTRAL COLORADO...

CITY           SKY/WX    TMP DP  RH WIND       PRES   REMARKS
ASPEN          CLOUDY    45  23  42 S12       29.93S
BUENA VISTA    PTCLDY    34  23  65 S5        29.94F WCI  29
COPPER MTN     PTCLDY    36  16  44 W23G32    30.07F
BERTHOUD PASS  FAIR      28  21  74 W39G55    30.03F WCI  11
COTTONWOOD PAS PTCLDY    45  14  29 NW9G24    30.00F
GUNNISON       PTCLDY    30  25  80 CALM      30.03S
KREMMLING      MOCLDY    30  23  74 CALM      29.92S
LEADVILLE      NOT AVBL
SALIDA         PTCLDY    43  21  41 SW5       30.00S
SUNLIGHT       MOCLDY    36  21  55 CALM      30.06F
WILKERSON PASS PTCLDY    32  16  51 SW13G23   30.05F WCI  22
$$

COZ069>075-011200-
...SAN LUIS VALLEY/SANGRE DE CRISTO MOUNTAINS...

CITY           SKY/WX    TMP DP  RH WIND       PRES   REMARKS
ALAMOSA        MOCLDY    32  21  64 S5        29.97F WCI  27
LA VETA PASS   PTCLDY    36  18  48 S14G26    30.03F
SAGUACHE       PTCLDY    32  19  59 CALM      29.99F
$$

COZ035-036-038>040-011200-
...NORTHERN COLORADO FRONT RANGE...

CITY           SKY/WX    TMP DP  RH WIND       PRES   REMARKS
DENVER INTL AP PTCLDY    52  25  35 SW16      29.74S
DMNS CITY PARK   N/A     56  22  27 S9        29.73F
AURORA         PTCLDY    48  24  39 S13       29.76S
FRONT RANGE AP CLEAR     50  28  43 S15       29.75F
ERIE MUNI ARPT PTCLDY    53  20  27 CALM      29.72S
BOULDER MUN AP PTCLDY    52  23  32 N3        29.71F
CENTENNIAL     PTCLDY    53  22  29 S10       29.77F
BROOMFIELD     PTCLDY    52  21  30 W5        29.75S
FORT COLLINS   MOCLDY    54  25  32 S8        29.71F
LONGMONT       MOCLDY    54  25  32 CALM      29.72F
$$

COZ041-046-047-076>085-087-088-011200-
...PIKES PEAK/PALMER DIVIDE AND SOUTHERN FOOTHILLS...

CITY           SKY/WX    TMP DP  RH WIND       PRES   REMARKS
COLO. SPRINGS  PTCLDY    50  21  32 CALM      29.83S
A. F. ACADEMY  PTCLDY    50  19  28 SE10      29.82F
ELLICOTT       NOT AVBL
FALCON         PTCLDY    46  20  35 CALM      29.86S
FORT CARSON    PTCLDY    44  24  45 NE3       29.80S
LIMON          PTCLDY    28  23  81 N3        29.79F
MONUMENT HILL  PTCLDY    46  19  34 S7        29.84F
TRINIDAD       CLEAR     45  22  40 W13       29.85F
$$

COZ042>045-048>051-090-091-011200-
...NORTHEAST COLORADO...

CITY           SKY/WX    TMP DP  RH WIND       PRES   REMARKS
GREELEY ARPT   PTCLDY    37  18  44 N3        29.69F
AKRON          CLEAR     53  23  31 SW13      29.70F
BURLINGTON     CLEAR     49  43  80 S13       29.73F
WRAY           CLEAR     53  44  71 S10G16    29.68F
STERLING       CLEAR     41  28  60 SW8       29.67F
HOLYOKE        NOT AVBL
FORT MORGAN    CLEAR    N/A N/A N/A SW5       29.70S
$$

COZ086-089-092>099-011200-
...SOUTHEAST COLORADO...

CITY           SKY/WX    TMP DP  RH WIND       PRES   REMARKS
PUEBLO         CLEAR     41  26  55 CALM      29.77F
LA JUNTA       CLEAR     48  24  39 SW8       29.76S
LAMAR          CLEAR     41  35  79 CALM      29.72F
SPRINGFIELD      N/A     44  28  53 CALM      29.78F
$$



USA.gov is the U.S. government's official web portal to all federal, state and local government web resources and services.